[[{"header":{"parameterUnit":"m.s-1","parameterCategory":1,"la1":30.2991,"la2":30.254,"lo1":-89.0895,"lo2":-89.0444,"dy":0.0017,"dx":0.0017,"nx":28,"ny":28,"refTime":"2024-07-01T09:00:00:Z","depth":0,"parameterNumber":2,"parameterNumberName":"U-component_of_WINDS"},"data":[0,0,0,0,0,0,0,0,0,0,0,0,0,0,0,0,0,0,0,0,0,0,0,0,0,0,0,0,0,0,0,0,0,0,0,0,0,0,0,0,0,0,0,0,0,0,0,0,0,0,0,0,0,0,0,0,0,0,0.3657,0.3657,0,0.3624,0.3624,0.3624,0.3594,0.3594,0.3594,0.3593,0.3558,0.3558,0.3557,0,0,0,0,0,0,0,0,0,0,0,0,0,0.3693,0.3693,0.3657,0.3657,0.3656,0.3625,0.3624,0.3624,0.3594,0.3594,0.3594,0.3593,0.3559,0.3558,0.3557,0,0,0,0,0,0,0,0,0,0,0,0,0,0.3671,0.3692,0.3657,0.3638,0.3636,0.3625,0.3624,0.3623,0.3594,0.3594,0.3593,0.3593,0.3559,0.3558,0.3557,0.3562,0,0,0.3554,0.3554,0,0,0,0,0,0,0,0,0.3672,0.3669,0.3641,0.3639,0.3637,0.3613,0.3624,0.3603,0.3595,0.361,0.3593,0.3593,0.3577,0.3574,0.3569,0.356,0.3559,0.3554,0.3554,0.3553,0.3553,0,0,0,0,0,0,0,0.3674,0.3671,0.3644,0.3641,0.3638,0.3631,0.3627,0.362,0.3597,0.3609,0.3607,0.3603,0.3576,0.357,0.3568,0.3558,0.3554,0.3553,0.3553,0.3552,0.3552,0.3552,0,0,0,0,0,0,0.3678,0.3672,0.3645,0.3643,0.3654,0.363,0.3626,0.3621,0.3597,0.3593,0.3604,0.3602,0.3572,0.3569,0.3567,0.3571,0.3553,0.3552,0.3552,0.3551,0.3552,0.3552,0,0,0,0,0,0,0.3679,0.3676,0.3646,0.3657,0.3653,0.363,0.3625,0.3621,0.3615,0.3593,0.3589,0.3603,0.3572,0.3568,0.3564,0.357,0.3552,0.3551,0.3551,0.3551,0.3552,0.358,0,0,0,0,0,0,0.368,0.3677,0.3678,0.3657,0.3652,0.3644,0.3625,0.362,0.3614,0.3612,0.3591,0.3587,0.3571,0.3565,0.3563,0.3568,0.355,0.355,0.3551,0.3552,0.3578,0.3581,0.3584,0,0,0,0,0,0.3682,0.3687,0.3679,0.3675,0.3654,0.3644,0.3641,0.3623,0.3615,0.3616,0.3602,0.3587,0.357,0.3565,0.3562,0.3567,0.3549,0.3551,0.3552,0.3577,0.3581,0.3584,0,0,0,0,0,0,0.3708,0.3684,0.3674,0.3673,0.3661,0.3639,0.364,0.3628,0.3618,0.3616,0.3594,0.3589,0.3587,0.3577,0.3572,0.3571,0.3558,0.3558,0.3578,0.3581,0.3584,0.3587,0.355,0,0,0,0,0,0.3714,0.3709,0.3687,0.3688,0.3683,0.3663,0.3658,0.3645,0.3632,0.3627,0.3612,0.3599,0.3591,0.3585,0.3576,0.3577,0.3572,0.3579,0.3582,0.3585,0.3585,0.3585,0.3588,0.3556,0.3556,0.3556,0,0,0.3726,0.3712,0.371,0.3693,0.3683,0.3677,0.3659,0.3654,0.365,0.3626,0.362,0.3609,0.3594,0.3592,0.359,0.3583,0.3593,0.3586,0.3588,0.3588,0.3587,0.359,0.3593,0.3557,0.3557,0.3557,0,0,0.3745,0.3734,0.3733,0.3723,0.3708,0.3695,0.3695,0.3675,0.3667,0.3662,0.3644,0.3638,0.3624,0.3614,0.3607,0.3623,0.3609,0.3621,0.3636,0.3636,0.3639,0.3641,0.3647,0.3649,0.3621,0.3622,0.3622,0,0.3761,0.3753,0.3735,0.3731,0.3725,0.3704,0.3703,0.3694,0.3676,0.3672,0.3664,0.3647,0.3635,0.363,0.3634,0.3629,0.3629,0.3623,0.364,0.3642,0.3644,0.3649,0.3652,0.3623,0.3623,0.3623,0.3623,0,0.3774,0.3769,0.377,0.3754,0.3748,0.3746,0.3727,0.3723,0.3711,0.3699,0.3694,0.3679,0.3667,0.3665,0.3653,0.3659,0.3655,0.3644,0.363,0.3649,0.3653,0.3655,0.3625,0.3625,0.3624,0.3624,0,0,0.3808,0.3783,0.3784,0.3777,0.3758,0.3754,0.3751,0.374,0.3736,0.3725,0.3722,0.3711,0.3701,0.3693,0.368,0.368,0.3695,0.3669,0.3668,0.3675,0.3701,0.371,0.3712,0.3686,0.3686,0.3686,0.3702,0,0.3824,0.3818,0.3802,0.3801,0.3796,0.3776,0.3774,0.3763,0.3751,0.3745,0.3732,0.3725,0.3712,0.3707,0.3707,0.3693,0.37,0.3692,0.3683,0.3683,0.3687,0.3715,0.3723,0.3739,0.3704,0.3704,0.3705,0,0.3841,0.3832,0.3831,0.3813,0.3811,0.3809,0.3798,0.3792,0.3779,0.3771,0.3762,0.3748,0.3744,0.3732,0.3726,0.3721,0.3717,0.371,0.371,0.3708,0.3695,0.3714,0.3744,0.3746,0.3707,0.3707,0.3707,0,0.3867,0.3854,0.3851,0.3846,0.3825,0.3825,0.3816,0.3802,0.3797,0.3787,0.3783,0.3773,0.3767,0.376,0.3743,0.3736,0.374,0.3726,0.3733,0.3733,0.3734,0.3734,0.3764,0.3731,0.3731,0.3731,0.3731,0,0.3886,0.3886,0.3862,0.3861,0.3861,0.3842,0.3842,0.3832,0.382,0.3816,0.3799,0.3795,0.3774,0.3768,0.3755,0.3753,0.375,0.3744,0.374,0.3745,0.3746,0.3742,0.374,0.3732,0.3732,0.3732,0.3731,0,0.3914,0.3898,0.3894,0.3876,0.3871,0.3872,0.3856,0.3854,0.3842,0.3837,0.3835,0.3816,0.3809,0.3792,0.3779,0.3771,0.3772,0.3765,0.3776,0.3774,0.3782,0.3782,0.381,0.3813,0.3779,0.3779,0.3779,0,0.3927,0.3927,0.3908,0.3905,0.3897,0.3892,0.3886,0.3868,0.3863,0.3849,0.3849,0.384,0.3832,0.3821,0.3806,0.3797,0.379,0.3801,0.3789,0.3794,0.3791,0.3791,0.3791,0.3803,0.3804,0.3804,0.3805,0,0.3952,0.3945,0.3938,0.3929,0.3923,0.3915,0.3905,0.3903,0.3883,0.3879,0.3871,0.3865,0.3853,0.3845,0.3834,0.3824,0.3811,0.3809,0.381,0.3815,0.3822,0.3818,0.3784,0.3808,0.3808,0.3807,0.3807,0.3807,0.3973,0.3972,0.396,0.3953,0.3944,0.3936,0.3933,0.3922,0.3915,0.3904,0.3894,0.3888,0.3875,0.3859,0.3851,0.3846,0.3839,0.384,0.3841,0.3842,0.3844,0.3823,0.3843,0.3843,0.3843,0.3843,0.3843,0,0.3998,0.3989,0.3983,0.3971,0.3966,0.3954,0.3944,0.394,0.3935,0.3924,0.3917,0.3909,0.3901,0.3886,0.3877,0.3876,0.387,0.3874,0.3874,0.3872,0.385,0.385,0.3879,0.3879,0.3879,0.3879,0.3879,0.3879,0.401,0.4008,0.3999,0.3993,0.3984,0.3978,0.3973,0.3966,0.3957,0.3949,0.3943,0.3933,0.3921,0.3911,0.3904,0.3899,0.3897,0.3903,0.3897,0.3877,0.3874,0.387,0.387,0.3903,0.3903,0.3919,0.392,0.392]},{"header":{"parameterUnit":"m.s-1","parameterCategory":1,"la1":30.2991,"la2":30.254,"lo1":-89.0895,"lo2":-89.0444,"dy":0.0017,"dx":0.0017,"nx":28,"ny":28,"refTime":"2024-07-01T09:00:00:Z","depth":0,"parameterNumber":3,"parameterNumberName":"V-component_of_WINDS"},"data":[0,0,0,0,0,0,0,0,0,0,0,0,0,0,0,0,0,0,0,0,0,0,0,0,0,0,0,0,0,0,0,0,0,0,0,0,0,0,0,0,0,0,0,0,0,0,0,0,0,0,0,0,0,0,0,0,0,0,-2.2656,-2.2656,0,-2.2744,-2.2745,-2.2746,-2.2752,-2.2751,-2.275,-2.2749,-2.2838,-2.2841,-2.2845,0,0,0,0,0,0,0,0,0,0,0,0,0,-2.249,-2.2493,-2.2655,-2.2657,-2.2658,-2.2744,-2.2745,-2.2747,-2.2752,-2.2751,-2.275,-2.2749,-2.2837,-2.2841,-2.2845,0,0,0,0,0,0,0,0,0,0,0,0,0,-2.2569,-2.2494,-2.2655,-2.2671,-2.2673,-2.2744,-2.2745,-2.2747,-2.2753,-2.2751,-2.275,-2.2748,-2.2836,-2.284,-2.2845,-2.2905,0,0,-2.286,-2.2863,0,0,0,0,0,0,0,0,-2.2564,-2.2575,-2.2668,-2.267,-2.2673,-2.2736,-2.272,-2.28,-2.2753,-2.2722,-2.2749,-2.2748,-2.2805,-2.2812,-2.2832,-2.291,-2.2913,-2.2861,-2.2864,-2.2866,-2.2867,0,0,0,0,0,0,0,-2.2559,-2.2571,-2.269,-2.2669,-2.2672,-2.2673,-2.2683,-2.2735,-2.2771,-2.2725,-2.2726,-2.2736,-2.2806,-2.2827,-2.2834,-2.2915,-2.2861,-2.2865,-2.2868,-2.287,-2.3047,-2.3049,0,0,0,0,0,0,-2.255,-2.2566,-2.2688,-2.2693,-2.2614,-2.2678,-2.2688,-2.2717,-2.277,-2.2777,-2.2737,-2.2736,-2.282,-2.2829,-2.2838,-2.2912,-2.2866,-2.2871,-2.2873,-2.3045,-2.3047,-2.3049,0,0,0,0,0,0,-2.2547,-2.2561,-2.2684,-2.263,-2.2646,-2.2682,-2.2714,-2.2719,-2.2741,-2.278,-2.2786,-2.2753,-2.2819,-2.2831,-2.2889,-2.2915,-2.2873,-2.2877,-2.3043,-2.3046,-2.3048,-2.3061,0,0,0,0,0,0,-2.2542,-2.256,-2.2583,-2.2631,-2.2649,-2.2734,-2.2716,-2.2722,-2.275,-2.2749,-2.2796,-2.2802,-2.2819,-2.2882,-2.2894,-2.2921,-2.2881,-2.3041,-2.3044,-2.3048,-2.3059,-2.3064,-2.3069,0,0,0,0,0,-2.2536,-2.2583,-2.2584,-2.2599,-2.2679,-2.2736,-2.2746,-2.2765,-2.2752,-2.2775,-2.2801,-2.2801,-2.2911,-2.2887,-2.2901,-2.2931,-2.3039,-2.3043,-2.3047,-2.3056,-2.3063,-2.3069,0,0,0,0,0,0,-2.2536,-2.2589,-2.2592,-2.2655,-2.2691,-2.2737,-2.2767,-2.2771,-2.2811,-2.2809,-2.283,-2.284,-2.2898,-2.292,-2.2894,-2.2992,-2.2973,-2.298,-2.2976,-2.2982,-2.2987,-2.298,-2.2885,0,0,0,0,0,-2.2544,-2.2586,-2.263,-2.2682,-2.27,-2.273,-2.2756,-2.2768,-2.2806,-2.2821,-2.285,-2.2886,-2.2929,-2.2957,-2.2998,-2.3062,-2.3073,-2.3089,-2.3094,-2.3098,-2.3104,-2.314,-2.3148,-2.3062,-2.3062,-2.3062,0,0,-2.256,-2.2594,-2.2619,-2.2683,-2.2712,-2.2755,-2.2743,-2.2789,-2.2822,-2.2827,-2.2885,-2.2908,-2.295,-2.3011,-2.304,-2.3031,-2.313,-2.3103,-2.3106,-2.3109,-2.3145,-2.3153,-2.316,-2.3065,-2.3064,-2.3064,0,0,-2.2611,-2.264,-2.2687,-2.2717,-2.2763,-2.2783,-2.2794,-2.284,-2.2856,-2.2914,-2.2919,-2.2958,-2.3031,-2.3061,-2.3086,-2.315,-2.3152,-2.3163,-2.3189,-2.3224,-2.323,-2.3237,-2.326,-2.3268,-2.3169,-2.3169,-2.3169,0,-2.2624,-2.269,-2.271,-2.2757,-2.2785,-2.2794,-2.2841,-2.2869,-2.2925,-2.2944,-2.2934,-2.3027,-2.3056,-2.3125,-2.3141,-2.3161,-2.3174,-2.3158,-2.3228,-2.3234,-2.324,-2.3263,-2.3271,-2.317,-2.317,-2.3169,-2.3169,0,-2.2705,-2.2751,-2.2783,-2.2838,-2.287,-2.2917,-2.2944,-2.2974,-2.2983,-2.3004,-2.3064,-2.3099,-2.3148,-2.3165,-2.3174,-2.3236,-2.323,-2.3224,-2.3205,-2.3249,-2.3271,-2.3279,-2.3171,-2.3171,-2.3171,-2.317,0,0,-2.2757,-2.2825,-2.2836,-2.2862,-2.2913,-2.2948,-2.2996,-2.3045,-2.307,-2.3109,-2.3149,-2.3212,-2.3207,-2.3235,-2.3248,-2.3278,-2.3328,-2.3269,-2.327,-2.3279,-2.3399,-2.3403,-2.3412,-2.3329,-2.3331,-2.3332,-2.3395,0,-2.2814,-2.29,-2.292,-2.2993,-2.3036,-2.3045,-2.3087,-2.3122,-2.3144,-2.3183,-2.3207,-2.3251,-2.3241,-2.3258,-2.3289,-2.3315,-2.3352,-2.3311,-2.3367,-2.3369,-2.3356,-2.3424,-2.3428,-2.3485,-2.3404,-2.3405,-2.3406,0,-2.2892,-2.2933,-2.3011,-2.3058,-2.3076,-2.3113,-2.3161,-2.3198,-2.3239,-2.3253,-2.3285,-2.3295,-2.3345,-2.3324,-2.3393,-2.3365,-2.3389,-2.3405,-2.3408,-2.3414,-2.339,-2.3431,-2.3504,-2.3513,-2.3419,-2.3418,-2.3417,0,-2.2922,-2.2998,-2.3055,-2.3076,-2.3132,-2.3158,-2.3182,-2.3222,-2.325,-2.3291,-2.331,-2.3356,-2.3382,-2.3417,-2.3439,-2.3422,-2.3507,-2.3488,-2.3519,-2.3519,-2.3536,-2.3535,-2.3614,-2.3552,-2.3552,-2.3551,-2.3551,0,-2.2984,-2.3031,-2.3069,-2.3104,-2.3157,-2.318,-2.3232,-2.3257,-2.3292,-2.3332,-2.3342,-2.3379,-2.3406,-2.3447,-2.3464,-2.3519,-2.353,-2.3542,-2.3546,-2.3541,-2.354,-2.3557,-2.3554,-2.3554,-2.3553,-2.3553,-2.3552,0,-2.3027,-2.3055,-2.3117,-2.3165,-2.3178,-2.3216,-2.3257,-2.3291,-2.3313,-2.3363,-2.3376,-2.3411,-2.3459,-2.3485,-2.3545,-2.3557,-2.3619,-2.362,-2.3605,-2.3607,-2.3637,-2.3634,-2.373,-2.3744,-2.3672,-2.3673,-2.3674,0,-2.3064,-2.3101,-2.3154,-2.3181,-2.3206,-2.3251,-2.328,-2.3305,-2.3335,-2.3386,-2.3414,-2.3463,-2.3504,-2.358,-2.3611,-2.3657,-2.366,-2.3691,-2.3667,-2.3661,-2.3661,-2.3658,-2.3662,-2.3695,-2.3695,-2.3696,-2.3696,0,-2.3127,-2.314,-2.3182,-2.3231,-2.3266,-2.3305,-2.3343,-2.3365,-2.3396,-2.3429,-2.348,-2.3511,-2.3574,-2.3623,-2.3672,-2.3696,-2.3702,-2.3704,-2.3714,-2.3709,-2.3699,-2.3705,-2.3616,-2.3701,-2.3701,-2.37,-2.37,-2.37,-2.3169,-2.3202,-2.3245,-2.3293,-2.3324,-2.336,-2.3395,-2.3423,-2.3465,-2.3518,-2.353,-2.3583,-2.3624,-2.3691,-2.3717,-2.3759,-2.3752,-2.3766,-2.377,-2.3773,-2.3775,-2.3692,-2.3768,-2.3767,-2.3767,-2.3767,-2.3767,0,-2.3233,-2.3261,-2.3305,-2.3359,-2.3397,-2.34,-2.3442,-2.3474,-2.352,-2.3559,-2.3599,-2.3657,-2.3705,-2.374,-2.3788,-2.3815,-2.3819,-2.3827,-2.3825,-2.3831,-2.3777,-2.3764,-2.3823,-2.3823,-2.3823,-2.3823,-2.3823,-2.3823,-2.3271,-2.3328,-2.3345,-2.3418,-2.3446,-2.3499,-2.3523,-2.3557,-2.3587,-2.3652,-2.3692,-2.3715,-2.3752,-2.3804,-2.3848,-2.3857,-2.3874,-2.3882,-2.3891,-2.384,-2.3834,-2.3829,-2.3816,-2.3886,-2.3886,-2.3942,-2.3942,-2.3943]}]]